Location: Altenst�hlen
(53.5567°N, 8.9425°E)
Time: 07:31:10
(UTC+00:00)

STARLINK-58 - Pass Details

Date: 23 October 2019
Orbit: 548 x 551 km, 53.0° (Epoch: 17 November)

Event Time Altitude Azimuth Distance (km) Brightness Sun altitude
Rises 17:04:30 0° 269° (W) 2,718 9.4 -8.6°
Reaches altitude 10° 17:06:44 10° 269° (W) 1,825 7.9 -8.9°
Maximum altitude 17:10:54 85° 181° (S) 558 3.6 -9.6°
Enters shadow 17:14:29 14° 94° (E) 1,600 5.3 -10.1°
